Theta_e
311 310 310 310 310 310 310 309 308 308 307 306 304 303 303 303 305 306 307 309 311 312 311 321 327 327 326 325 326 324 328 330 329 328 327 325 325 325 323 323 323 321 324 325 326
308 308 309 310 310 310 310 309 309 309 308 308 307 305 303 301 306 310 310 310 312 310 311 326 329 327 325 326 326 328 329 329 326 326 326 326 327 327 325 325 321 322 324 325 325
306 307 308 308 309 308 309 309 309 309 309 308 308 307 305 301 310 307 312 315 316 310 310 322 326 326 327 325 327 327 330 328 327 327 327 326 327 328 326 326 325 322 322 324 322
304 304 304 306 307 307 307 308 309 310 310 309 308 308 307 306 305 310 315 315 317 315 314 318 324 325 325 327 326 329 328 329 328 327 328 328 328 328 327 326 325 323 323 323 322
306 306 305 303 303 306 307 306 306 307 308 308 308 309 310 313 306 311 317 311 317 318 316 314 316 322 325 326 326 327 327 327 327 327 328 327 327 327 327 326 325 320 323 324 323
306 306 306 306 305 304 302 306 305 304 305 307 309 310 311 308 304 306 309 308 309 319 319 315 315 315 316 318 321 326 327 327 328 329 328 328 328 328 328 326 325 321 322 323 323
305 306 306 306 306 306 305 301 302 306 306 307 309 310 311 312 306 305 307 307 308 309 318 318 316 316 315 316 315 317 319 320 323 325 326 326 327 326 324 323 322 322 319 321 322
305 304 305 306 306 307 306 306 301 302 306 307 308 310 311 310 310 308 309 306 307 310 313 315 317 315 315 314 316 317 317 320 321 323 325 322 327 324 323 322 323 322 320 319 320
305 304 304 305 305 306 306 305 304 303 305 307 307 309 311 308 310 308 308 306 306 307 307 313 314 314 313 315 314 315 318 318 320 320 321 321 323 324 323 322 322 322 321 318 318
305 305 304 304 305 305 305 304 303 306 307 307 308 311 309 308 306 307 307 306 308 308 310 311 314 313 311 313 316 315 316 318 320 320 320 321 322 323 323 323 322 322 322 320 320
305 304 304 304 304 304 306 304 302 310 309 310 309 307 309 310 309 310 307 306 310 311 309 314 316 318 317 316 316 316 316 317 318 320 322 322 322 323 323 321 322 322 322 320 320
304 303 304 304 305 305 305 301 305 307 308 307 308 310 311 311 311 310 308 309 310 308 311 315 315 318 319 317 316 317 318 320 321 321 321 321 321 321 321 321 321 323 321 319 322
304 304 304 303 304 304 303 303 304 304 309 309 308 309 309 310 312 311 311 311 309 309 310 311 314 319 321 318 319 318 318 318 320 321 321 321 323 323 322 321 322 321 320 320 321
304 303 304 304 304 304 304 303 304 303 308 307 312 310 311 310 311 311 312 313 312 307 311 311 313 316 319 318 317 318 319 319 320 321 324 322 324 322 321 322 321 320 319 319 321
302 303 303 303 305 304 304 304 305 306 301 304 308 310 312 310 311 310 311 313 314 310 309 311 312 313 316 316 316 318 319 320 321 321 321 323 323 322 320 323 321 319 318 317 320
303 302 303 303 304 304 304 304 305 313 308 306 308 307 310 313 313 314 312 312 313 313 310 309 313 313 314 317 317 316 318 318 318 319 323 322 322 324 322 322 322 322 321 321 319
302 303 303 303 304 304 304 304 308 312 306 307 308 308 308 310 314 314 314 312 313 314 314 312 311 313 313 315 314 315 317 319 319 322 325 321 322 323 322 321 321 322 321 320 320
302 303 303 303 303 304 305 307 309 307 308 307 307 308 310 309 310 314 314 313 312 313 314 314 314 312 314 313 314 314 317 321 325 324 323 322 325 324 321 321 321 320 319 321 321
303 303 303 304 304 304 305 308 306 307 307 308 307 309 309 309 310 311 315 315 312 313 313 314 314 315 314 314 314 313 317 318 318 321 322 322 322 322 322 322 324 323 322 322 322
304 302 302 304 305 305 306 303 306 306 305 306 307 309 308 309 310 311 314 315 318 313 311 314 314 314 315 314 313 312 313 314 312 318 322 323 323 324 323 325 326 325 323 322 322
302 301 303 305 305 306 305 304 304 304 304 306 307 306 307 309 310 311 313 315 315 314 314 312 314 316 315 314 314 312 314 314 316 318 322 322 323 319 321 322 325 323 322 322 323
299 299 305 305 306 302 305 304 305 305 305 306 306 307 307 309 310 308 311 313 313 312 314 314 311 314 315 315 315 314 313 313 316 318 319 321 324 321 318 319 323 323 322 321 322
300 298 303 304 307 303 304 305 305 305 305 306 307 306 307 307 310 309 311 311 311 310 312 312 315 314 315 316 314 313 313 313 314 316 320 321 323 321 321 318 324 323 323 322 322
300 300 300 301 302 305 305 305 306 305 304 304 304 305 306 308 309 310 308 308 309 309 313 310 315 316 316 316 316 316 314 313 315 317 318 321 321 325 326 323 325 324 322 323 324
296 299 302 302 301 302 301 303 304 306 304 303 304 307 306 307 310 311 311 310 308 310 310 308 312 318 318 315 316 318 317 315 316 316 318 320 319 320 326 325 325 324 322 323 324
299 303 303 303 303 301 301 304 306 307 307 306 307 307 307 307 310 311 311 312 310 309 309 307 309 316 321 316 315 315 317 316 318 318 319 320 320 318 322 326 327 325 324 324 325
301 301 301 302 302 299 300 304 304 305 307 307 307 306 306 307 308 308 309 310 310 310 310 309 311 312 321 318 315 316 316 316 319 320 320 320 319 319 325 328 328 325 324 325 325
Wind_Speed
18 18 17 18 18 18 19 19 19 20 20 20 21 21 20 22 22 18 10 17 12 14 19 10 12 9 12 5 5 4 3 6 7 7 8 3 3 4 5 4 5 6 7 6 15
20 20 19 18 18 18 19 20 20 20 20 20 21 21 21 20 20 15 34 27 28 25 13 14 7 6 3 5 5 5 5 10 11 7 6 8 8 16 5 12 6 7 6 3 30
21 21 22 21 21 21 20 20 20 20 20 20 20 20 19 15 7 10 21 6 11 30 26 17 14 8 5 4 7 7 13 23 15 15 5 7 15 16 12 17 13 12 7 5 8
21 21 21 21 22 23 22 22 20 20 20 21 20 19 18 2 9 3 14 10 4 16 23 12 5 8 7 11 10 4 11 19 24 18 6 12 14 17 20 16 18 15 5 9 9
21 21 22 22 22 22 23 23 22 20 20 19 17 15 9 5 9 14 14 9 10 18 21 12 6 7 8 5 5 7 19 18 14 11 14 17 20 21 22 22 19 10 8 14 16
23 23 23 24 23 23 24 24 24 24 23 20 16 12 4 13 13 31 39 29 25 6 13 14 9 8 3 10 9 6 9 18 15 19 18 21 23 19 25 17 18 10 12 13 16
23 24 25 25 24 25 26 26 26 25 22 19 17 14 15 25 11 11 17 24 22 24 8 24 19 8 7 6 6 6 12 16 19 22 20 10 20 22 21 14 16 17 11 12 17
25 26 26 26 26 27 28 30 30 27 23 18 15 14 13 17 24 32 37 41 28 14 21 21 25 14 3 2 7 4 2 8 6 15 16 7 26 25 21 12 16 16 11 10 15
25 26 26 25 26 28 31 34 36 33 25 17 12 10 13 13 12 40 35 19 27 26 18 12 7 6 4 10 7 3 12 13 17 10 6 8 13 21 8 8 12 13 13 10 14
24 25 26 26 26 26 29 38 28 11 5 9 14 2 10 8 11 10 19 31 8 8 5 8 5 6 5 6 15 11 9 15 19 3 11 16 14 22 19 8 11 15 19 12 13
25 25 24 23 25 24 26 16 5 1 1 8 7 7 6 17 9 7 11 18 8 4 11 9 8 19 21 20 12 13 12 18 18 5 7 9 10 17 19 9 16 16 17 12 12
27 26 25 24 23 20 21 1 4 5 12 13 21 23 39 18 9 6 22 8 9 18 10 7 27 17 12 14 16 11 9 18 15 12 5 12 15 16 17 14 16 21 14 11 3
27 25 24 25 23 14 4 10 11 16 6 12 15 11 13 14 12 9 8 6 6 13 23 25 18 15 19 14 17 17 19 19 20 6 7 11 12 16 17 8 10 8 5 6 11
26 24 23 23 12 8 9 2 22 15 4 8 6 7 8 12 11 17 9 7 6 20 17 17 23 17 20 20 19 19 19 19 17 8 9 4 5 5 8 10 7 9 7 9 8
24 23 21 16 13 7 7 20 26 3 5 2 4 2 1 14 2 12 26 8 12 8 11 16 19 25 17 29 20 18 12 12 8 7 5 16 4 5 4 10 10 10 9 9 8
24 25 20 16 9 17 16 21 4 2 8 6 4 12 1 12 18 7 12 9 7 7 11 20 9 18 27 10 18 8 3 3 6 2 8 21 5 8 6 8 6 6 6 4 7
28 24 20 16 5 3 18 6 0 6 6 3 11 18 12 14 11 15 13 20 16 10 15 8 21 4 10 20 10 10 6 2 3 4 6 8 6 14 10 10 12 11 5 8 8
29 25 21 22 17 8 3 1 8 5 9 13 19 17 9 20 12 9 10 16 26 16 11 12 10 27 11 19 12 22 15 6 6 4 4 6 7 10 9 12 10 9 7 9 9
26 15 11 11 5 7 2 4 4 3 8 14 15 8 9 15 10 11 12 6 15 17 8 13 14 2 22 8 18 11 15 12 3 1 1 4 7 8 3 1 2 6 8 9 9
15 9 8 7 9 7 1 5 4 6 12 13 8 6 15 12 13 14 5 12 7 19 0 2 2 9 14 18 17 9 9 9 4 4 3 5 4 6 3 2 3 6 8 7 7
7 4 11 3 11 1 2 5 5 8 10 4 5 9 14 9 5 14 7 7 18 14 10 3 2 4 10 14 23 6 15 3 8 5 6 1 6 8 9 9 11 9 8 11 11
4 3 5 4 1 1 1 3 5 10 9 8 7 11 12 6 4 6 9 12 11 16 7 6 5 9 11 4 17 23 19 20 8 8 2 5 12 5 8 10 9 9 8 7 8
4 2 3 3 2 1 3 5 7 11 8 3 4 6 10 9 5 4 8 15 13 16 13 8 5 1 5 5 4 14 22 16 7 3 6 6 6 3 5 8 11 10 8 9 9
2 4 3 3 2 1 4 4 4 7 10 5 7 6 9 9 7 7 13 9 16 16 16 5 5 12 17 4 4 5 17 17 14 10 10 10 5 3 3 7 7 7 8 11 12
3 2 2 3 3 7 3 4 7 6 3 5 4 4 8 6 8 8 10 13 7 12 9 3 4 7 17 21 11 4 11 20 20 20 15 16 10 7 8 10 14 9 8 10 11
2 2 2 5 6 5 5 3 7 10 5 5 2 7 8 7 7 12 10 5 3 9 9 6 5 10 9 15 23 22 8 16 20 14 11 8 9 8 7 8 7 11 13 14 15
2 3 1 5 6 3 3 4 10 12 8 10 8 9 12 12 6 10 8 7 8 6 8 3 4 10 7 13 9 16 28 15 9 13 15 9 9 7 4 11 12 10 14 17 16
Wind_Direction
334 331 331 327 322 322 325 327 328 328 327 322 319 320 314 309 305 298 257 247 261 272 257 259 192 186 183 176 176 145 111 248 237 184 248 257 2 236 279 246 317 215 168 240 187
333 329 325 322 319 316 316 318 318 320 323 323 323 322 319 325 318 275 265 271 271 256 219 191 170 184 192 193 186 170 175 229 226 207 245 294 309 290 326 301 270 279 268 248 165
333 332 331 329 326 321 316 312 311 313 314 314 319 327 327 333 325 257 286 241 243 243 227 205 178 162 211 171 201 189 222 233 267 247 209 274 288 285 282 286 275 267 242 169 162
341 331 325 326 325 321 318 315 312 308 308 311 317 324 326 314 239 230 149 50 258 211 201 176 178 175 209 209 206 246 231 239 246 266 274 259 274 278 279 268 276 273 224 166 170
337 334 335 328 320 319 318 314 307 302 301 305 309 317 336 247 235 225 220 327 12 172 183 188 173 179 204 203 178 220 246 248 261 272 271 274 266 264 280 279 277 268 196 189 186
336 333 331 328 327 321 315 312 309 299 299 299 303 308 239 249 254 253 255 275 269 200 184 176 198 213 218 238 240 225 254 260 259 261 259 265 274 278 272 274 276 250 222 197 195
332 331 329 325 321 319 317 309 303 301 298 294 296 286 253 242 247 238 249 260 265 239 207 205 222 199 183 311 261 252 271 278 262 261 260 280 279 268 273 264 259 267 235 216 206
331 329 327 324 322 316 313 312 307 295 290 285 287 273 257 274 268 260 245 261 251 231 231 233 217 230 182 304 343 357 287 265 236 240 256 176 265 268 268 262 261 262 260 211 220
329 327 327 323 319 318 315 313 305 294 279 265 265 233 269 277 225 243 236 227 242 236 245 237 173 187 110 224 269 260 258 267 279 221 249 180 277 275 267 226 259 266 261 218 233
327 326 324 324 323 317 319 315 318 308 240 211 227 224 251 236 238 241 234 213 204 187 196 192 180 182 167 163 214 219 238 247 251 200 221 252 259 277 281 289 264 269 270 228 222
327 326 326 324 324 321 325 337 6 44 292 221 217 249 307 8 243 213 178 175 176 204 185 177 197 210 202 209 216 228 234 247 258 213 233 240 252 274 282 287 280 277 265 235 228
327 326 326 325 323 318 313 260 259 329 294 256 252 245 267 282 298 282 149 145 179 200 168 182 227 210 208 210 218 232 246 256 281 265 246 276 269 270 283 277 272 268 257 242 105
326 325 325 325 319 314 299 272 329 317 270 276 228 235 221 205 231 247 189 160 174 194 196 203 221 197 206 212 217 224 230 247 251 299 226 278 282 278 279 287 278 246 214 174 187
327 324 326 329 317 325 282 286 326 320 288 273 218 248 200 190 245 224 209 174 202 203 199 227 218 182 205 223 212 231 221 241 256 276 271 116 289 294 279 289 285 265 217 233 202
328 324 324 326 291 282 287 323 327 172 308 237 202 148 251 194 47 223 198 220 206 166 173 205 198 222 223 219 205 237 225 244 255 258 298 271 265 255 267 287 266 269 236 231 188
324 326 320 321 270 272 308 325 311 207 247 307 85 351 310 224 249 314 168 214 159 220 233 222 200 206 222 203 213 233 230 287 265 234 254 264 163 276 230 226 264 261 294 118 131
326 317 303 283 253 281 318 339 207 224 304 14 349 335 326 337 202 243 217 189 187 186 212 188 228 221 175 218 209 194 112 271 307 198 222 234 180 239 257 245 247 250 166 138 131
328 315 299 278 274 288 309 83 222 253 268 351 346 326 16 11 343 264 235 200 206 195 174 192 213 212 189 202 191 210 187 175 201 183 213 181 236 252 242 259 232 238 145 128 138
332 335 309 320 254 204 137 213 230 303 9 347 339 355 344 360 346 348 233 267 225 195 178 201 231 214 198 189 183 199 206 181 358 278 72 208 285 323 268 305 206 150 144 155 151
335 328 301 350 154 134 119 257 275 321 338 347 325 5 334 341 339 340 317 0 278 222 43 279 167 216 206 200 211 159 153 188 192 228 219 263 254 230 256 199 191 159 163 137 134
342 347 339 136 147 115 218 245 302 302 315 311 325 308 308 319 341 328 310 26 22 353 343 267 148 301 156 202 196 164 231 156 160 186 177 180 257 211 213 186 190 213 176 164 163
8 348 100 136 15 356 273 242 301 291 302 281 237 265 279 287 286 292 291 336 32 3 6 279 208 244 217 282 187 200 205 212 200 211 208 164 258 227 209 191 170 197 179 155 167
344 277 17 138 282 272 275 263 253 285 287 265 297 297 279 299 300 249 284 314 333 358 346 326 276 218 274 271 187 204 204 201 206 96 210 156 258 248 215 195 189 177 164 155 161
8 342 322 34 143 302 311 275 270 273 294 257 286 276 290 301 254 260 277 294 315 335 329 323 268 234 220 196 173 167 198 197 193 210 219 231 260 213 148 164 169 166 173 163 167
25 288 330 310 335 304 261 274 308 326 277 278 290 237 276 300 318 261 280 292 303 327 359 23 268 274 258 238 272 213 176 199 205 209 198 230 204 215 192 189 200 162 141 147 159
39 328 340 283 306 304 301 299 296 317 293 288 224 310 328 281 250 287 313 334 358 301 329 356 287 329 259 235 231 251 258 204 206 208 218 177 216 200 190 98 143 177 164 176 178
305 267 201 297 305 299 250 333 304 303 277 249 275 310 291 276 310 285 229 211 206 228 279 260 334 351 274 223 222 248 240 239 221 201 190 180 214 150 136 174 181 180 186 184 182